Location: Penton Mewsey
(51.2167°N, 1.5167°W)
Time: 00:13:11
(UTC+00:00)

Envisat - Pass Details

Date: 06 March 2021
Orbit: 764 x 766 km, 98.1° (Epoch: 22 April)

Event Time Altitude Azimuth Distance (km) Brightness Sun altitude
Rises 04:45:44 0° 24° (NNE) 3,247 6.8 -18.6°
Reaches altitude 10° 04:48:32 10° 39° (NE) 2,315 6.2 -18.1°
Maximum altitude 04:52:32 23° 91° (E) 1,593 5.5 -17.5°
Drops below altitude 10° 04:56:31 10° 143° (SE) 2,300 5.8 -16.9°
Sets 04:59:16 0° 157° (SSE) 3,220 6.4 -16.5°
